Location: Observatoire de Paris
(48.8363°N, 2.3365°E)
Time: 02:35:51
(UTC+01:00)

Vanguard 3 - Pass Details

Date: 01 August 2021
Orbit: 510 x 3260 km, 33.3° (Epoch: 18 September)

Event Time Altitude Azimuth Distance (km) Brightness Sun altitude
Rises 21:11:30 0° 257° (WSW) 6,277 12.3 -6.7°
Reaches altitude 10° 21:15:27 10° 252° (WSW) 5,546 11.9 -7.2°
Maximum altitude 21:32:10 48° 186° (S) 3,896 10.3 -9.4°
Enters shadow 21:49:22 11° 121° (ESE) 5,749 10.8 -11.4°
